Volver al catálogo

THORAD AGENA D DEB

ActivoSSO
NORAD 19363·DEBRIS·🇺🇸 United States

Lanzado Apr 8, 1970 desde Vandenberg Space Force Base

Loading…

Próximos Pases (próximas 24 horas)

TLE

ActualizadoSource: Space-Track

Época: Sep 13, 2026, 06:03 UTC

1 19363U 70025PY  26256.25258284  .00000183  00000-0  29739-3 0  9998
2 19363 100.0396  34.4498 0005450 165.4936 312.3709 13.62471976708863

Sigue THORAD AGENA D DEB en tiempo real con AllMySat

Download on the App Store